Change the Weather History Date:

Wednesday, October 22, 2014

  Actual Average Record
Temperature  
Mean Temperature 60 °F -  
Max Temperature 75 °F 76 °F 89 °F (1984)
Min Temperature 48 °F 52 °F 36 °F (1987)
Degree Days  
Heating Degree Days 4    
Growing Degree Days 10 (Base 50)    
Moisture  
Dew Point 45 °F    
Average Humidity 60    
Maximum Humidity 93    
Minimum Humidity 28    
Precipitation  
Precipitation 0.01 in - - ()
Sea Level Pressure  
Sea Level Pressure 30.08 in    
Wind  
Wind Speed 5 mph (North)    
Max Wind Speed 10 mph    
Max Gust Speed -    
Visibility 10 miles    
Events      
Averages and records for this station are not official NWS values.
T = Trace of Precipitation, MM = Missing Value Source: NWS Daily Summary

Daily Weather History Graph

Daily Weather History Graph

Search for Another Location

Airport or City:

Trip Planner

Search our weather history database for the weather conditions in past years. The results will help you decide how hot, cold, wet, or windy it might be!

Date:

Astronomy

Oct. 22, 2014 Rise Set
Actual Time 6:54 AM CDT 6:06 PM CDT
Civil Twilight 6:30 AM CDT 6:31 PM CDT
Nautical Twilight 6:01 AM CDT 6:59 PM CDT
Astronomical Twilight 5:33 AM CDT 7:27 PM CDT
Moon 5:40 AM CDT (10/22) 5:29 PM CDT (10/22)
Length of Visible Light 12h 01m
Length of Day
11h 11m
Waning Crescent, 1% of the Moon is Illuminated
Oct 22
Waning Crescent
Oct 23
New
Oct 30
First Quarter
Nov 6
Full
Nov 14
Last Quarter

Hourly Weather History & Observations

Time (CDT) Temp. Dew Point Humidity Pressure Visibility Wind Dir Wind Speed Gust Speed Precip Events Conditions
2:56 AM 51.1 °F 48.0 °F 89% 30.01 in 10.0 mi North 4.6 mph - N/A   Clear
3:56 AM 48.9 °F 46.9 °F 93% 30.02 in 8.0 mi North 4.6 mph - N/A   Clear
4:56 AM 54.0 °F 50.0 °F 86% 30.04 in 10.0 mi Calm Calm - 0.01 in   Clear
5:56 AM 48.0 °F 45.0 °F 89% 30.06 in 8.0 mi North 4.6 mph - N/A   Clear
6:56 AM 51.1 °F 48.0 °F 89% 30.09 in 9.0 mi North 4.6 mph - N/A   Clear
7:56 AM 55.9 °F 50.0 °F 80% 30.11 in 10.0 mi Calm Calm - N/A   Clear
8:56 AM 59.0 °F 48.0 °F 67% 30.12 in 10.0 mi ENE 6.9 mph - N/A   Clear
9:56 AM 62.1 °F 46.0 °F 56% 30.13 in 10.0 mi NNE 9.2 mph - N/A   Clear
10:56 AM 66.0 °F 46.9 °F 50% 30.12 in 10.0 mi NE 8.1 mph - N/A   Clear
11:56 AM 70.0 °F 46.0 °F 42% 30.10 in 10.0 mi Variable 6.9 mph - N/A   Clear
12:56 PM 71.1 °F 39.0 °F 31% 30.08 in 10.0 mi North 10.4 mph - N/A   Clear
1:56 PM 73.0 °F 41.0 °F 31% 30.05 in 10.0 mi NNE 10.4 mph - N/A   Clear
2:56 PM 73.9 °F 39.0 °F 28% 30.04 in 10.0 mi North 10.4 mph - N/A   Clear
3:56 PM 73.9 °F 39.0 °F 28% 30.04 in 10.0 mi Variable 5.8 mph - N/A   Clear
4:56 PM 72.0 °F 42.1 °F 34% 30.04 in 10.0 mi North 6.9 mph - N/A   Clear
5:56 PM 68.0 °F 44.1 °F 42% 30.06 in 10.0 mi NNE 3.5 mph - N/A   Clear
6:56 PM 61.0 °F 46.0 °F 58% 30.07 in 10.0 mi North 5.8 mph - N/A   Clear
7:56 PM 57.9 °F 46.0 °F 65% 30.09 in 10.0 mi North 5.8 mph - N/A   Clear
8:56 PM 57.0 °F 44.1 °F 62% 30.10 in 10.0 mi North 4.6 mph - N/A   Clear
9:56 PM 55.9 °F 43.0 °F 62% 30.10 in 10.0 mi NNE 3.5 mph - N/A   Clear
10:56 PM 55.0 °F 43.0 °F 64% 30.10 in 10.0 mi North 3.5 mph - N/A   Clear
11:56 PM 52.0 °F 43.0 °F 71% 30.09 in 10.0 mi North 4.6 mph - N/A   Clear